Weather History for KPCZ - October, 2011

Change the Weather History Date:

Wednesday, October 5, 2011

  Actual Average Record
Temperature  
Mean Temperature 62 °F -  
Max Temperature 82 °F 63 °F 82 °F (2005)
Min Temperature 42 °F 41 °F 24 °F (1965)
Degree Days  
Heating Degree Days 3    
Growing Degree Days 12 (Base 50)    
Moisture  
Dew Point 46 °F    
Average Humidity 65    
Maximum Humidity 100    
Minimum Humidity 25    
Precipitation  
Precipitation 0.00 in - - ()
Sea Level Pressure  
Sea Level Pressure 30.20 in    
Wind  
Wind Speed 2 mph (SE)    
Max Wind Speed 9 mph    
Max Gust Speed -    
Visibility 9 miles    
Events      
Averages and records for this station are not official NWS values.
T = Trace of Precipitation, MM = Missing Value Source: NWS Daily Summary

Daily Weather History Graph

Daily Weather History Graph

Search for Another Location

Airport or City:

Trip Planner

Search our weather history database for the weather conditions in past years. The results will help you decide how hot, cold, wet, or windy it might be!

Date:

Astronomy

Oct. 05, 2011 Rise Set
Actual Time 6:58 AM CDT 6:29 PM CDT
Civil Twilight 6:29 AM CDT 6:58 PM CDT
Nautical Twilight 5:55 AM CDT 7:32 PM CDT
Astronomical Twilight 5:21 AM CDT 8:06 PM CDT
Moon 3:22 PM CDT 12:31 AM CDT
Length of Visible Light 12h 29m
Length of Day
11h 31m
Waxing Gibbous, 66% of the Moon is Illuminated
Oct 5
Waxing Gibbous
Oct 11
Full
Oct 19
Last Quarter
Oct 26
New
Nov 2
First Quarter

Hourly Weather History & Observations

Time (CDT) Temp. Dew Point Humidity Pressure Visibility Wind Dir Wind Speed Gust Speed Precip Events Conditions
12:15 AM 50.0 °F 46.4 °F 87% 30.20 in 10.0 mi Calm Calm - N/A   Clear
12:35 AM 46.4 °F 44.6 °F 93% 30.20 in 10.0 mi Calm Calm - N/A   Clear
12:55 AM 48.2 °F 46.4 °F 93% 30.20 in 10.0 mi Calm Calm - N/A   Clear
1:15 AM 48.2 °F 44.6 °F 87% 30.20 in 10.0 mi Calm Calm - N/A   Clear
1:35 AM 46.4 °F 44.6 °F 93% 30.20 in 5.0 mi Calm Calm - N/A   Clear
2:15 AM 46.4 °F 44.6 °F 93% 30.21 in 10.0 mi Calm Calm - N/A   Clear
2:35 AM 46.4 °F 44.6 °F 93% 30.21 in 10.0 mi Calm Calm - N/A   Clear
2:55 AM 46.4 °F 44.6 °F 93% 30.21 in 7.0 mi Calm Calm - N/A   Clear
3:15 AM 44.6 °F 42.8 °F 93% 30.21 in 3.0 mi Calm Calm - N/A   Clear
3:35 AM 46.4 °F 44.6 °F 93% 30.21 in 10.0 mi Calm Calm - N/A   Clear
3:55 AM 44.6 °F 42.8 °F 93% 30.21 in 10.0 mi Calm Calm - N/A   Clear
4:15 AM 44.6 °F 42.8 °F 93% 30.21 in 7.0 mi Calm Calm - N/A   Clear
4:55 AM 44.6 °F 42.8 °F 93% 30.21 in 10.0 mi Calm Calm - N/A   Clear
5:15 AM 44.6 °F 42.8 °F 93% 30.21 in 10.0 mi Calm Calm - N/A   Clear
5:35 AM 42.8 °F 42.8 °F 100% 30.22 in 7.0 mi Calm Calm - N/A   Clear
5:55 AM 42.8 °F 41.0 °F 93% 30.22 in 10.0 mi Calm Calm - N/A   Clear
6:15 AM 42.8 °F 41.0 °F 93% 30.22 in 7.0 mi Calm Calm - N/A   Clear
6:35 AM 42.8 °F 41.0 °F 93% 30.23 in 10.0 mi Calm Calm - N/A   Clear
6:55 AM 42.8 °F 41.0 °F 93% 30.22 in 5.0 mi Calm Calm - N/A   Clear
7:15 AM 42.8 °F 41.0 °F 93% 30.23 in 5.0 mi Calm Calm - N/A   Clear
7:35 AM 42.8 °F 41.0 °F 93% 30.23 in 2.5 mi Calm Calm - N/A   Clear
7:55 AM 44.6 °F 42.8 °F 93% 30.23 in 10.0 mi Calm Calm - N/A   Clear
8:15 AM 46.4 °F 44.6 °F 93% 30.24 in 10.0 mi Calm Calm - N/A   Clear
8:35 AM 50.0 °F 48.2 °F 94% 30.24 in 10.0 mi Calm Calm - N/A   Clear
9:15 AM 53.6 °F 50.0 °F 88% 30.23 in 10.0 mi Calm Calm - N/A   Clear
9:35 AM 57.2 °F 50.0 °F 77% 30.24 in 10.0 mi Calm Calm - N/A   Clear
9:55 AM 60.8 °F 50.0 °F 68% 30.23 in 10.0 mi SSE 3.5 mph - N/A   Clear
10:35 AM 64.4 °F 50.0 °F 59% 30.23 in 10.0 mi South 3.5 mph - N/A   Clear
10:55 AM 68.0 °F 50.0 °F 52% 30.23 in 10.0 mi Calm Calm - N/A   Clear
11:15 AM 69.8 °F 50.0 °F 49% 30.23 in 10.0 mi SE 3.5 mph - N/A   Clear
11:35 AM 71.6 °F 50.0 °F 46% 30.22 in 10.0 mi SE 4.6 mph - N/A   Clear
11:55 AM 73.4 °F 50.0 °F 44% 30.22 in 10.0 mi SSE 3.5 mph - N/A   Unknown
12:15 PM 75.2 °F 50.0 °F 41% 30.21 in 10.0 mi SSE 4.6 mph - N/A   Clear
12:35 PM 77.0 °F 50.0 °F 39% 30.21 in 10.0 mi SE 4.6 mph - N/A   Clear
12:55 PM 78.8 °F 46.4 °F 32% 30.20 in 10.0 mi SSE 5.8 mph - N/A   Clear
1:15 PM 78.8 °F 44.6 °F 30% 30.19 in 10.0 mi SSE 4.6 mph - N/A   Clear
1:35 PM 80.6 °F 44.6 °F 28% 30.18 in 10.0 mi SSE 5.8 mph - N/A   Clear
1:55 PM 80.6 °F 44.6 °F 28% 30.18 in 10.0 mi SE 6.9 mph - N/A   Clear
2:35 PM 80.6 °F 44.6 °F 28% 30.17 in 10.0 mi South 8.1 mph - N/A   Clear
2:55 PM 80.6 °F 42.8 °F 26% 30.16 in 10.0 mi South 5.8 mph - N/A   Clear
3:15 PM 82.4 °F 42.8 °F 25% 30.16 in 10.0 mi SSW 6.9 mph - N/A   Clear
3:35 PM 82.4 °F 42.8 °F 25% 30.16 in 10.0 mi SSE 8.1 mph - N/A   Clear
3:55 PM 80.6 °F 42.8 °F 26% 30.16 in 10.0 mi SE 9.2 mph - N/A   Clear
4:15 PM 80.6 °F 42.8 °F 26% 30.16 in 10.0 mi SSE 6.9 mph - N/A   Clear
4:35 PM 77.0 °F 44.6 °F 32% 30.16 in 10.0 mi SSE 5.8 mph - N/A   Clear
4:55 PM 78.8 °F 44.6 °F 30% 30.15 in 10.0 mi SE 5.8 mph - N/A   Clear
5:15 PM 78.8 °F 44.6 °F 30% 30.15 in 10.0 mi SE 3.5 mph - N/A   Clear
5:35 PM 77.0 °F 46.4 °F 34% 30.15 in 10.0 mi SE 4.6 mph - N/A   Clear
5:55 PM 75.2 °F 46.4 °F 36% 30.15 in 10.0 mi SE 4.6 mph - N/A   Clear
6:15 PM 71.6 °F 48.2 °F 43% 30.15 in 10.0 mi ESE 3.5 mph - N/A   Clear
6:35 PM 68.0 °F 50.0 °F 52% 30.15 in 10.0 mi Calm Calm - N/A   Clear
6:55 PM 64.4 °F 50.0 °F 59% 30.16 in 10.0 mi East 4.6 mph - N/A   Clear
7:15 PM 62.6 °F 50.0 °F 63% 30.16 in 10.0 mi ESE 3.5 mph - N/A   Clear
7:35 PM 62.6 °F 50.0 °F 63% 30.16 in 10.0 mi Calm Calm - N/A   Clear
8:15 PM 64.4 °F 48.2 °F 56% 30.17 in 10.0 mi SE 6.9 mph - N/A   Clear
8:35 PM 62.6 °F 50.0 °F 63% 30.18 in 10.0 mi ESE 4.6 mph - N/A   Clear
9:15 PM 60.8 °F 50.0 °F 68% 30.18 in 10.0 mi ESE 3.5 mph - N/A   Clear
9:35 PM 59.0 °F 50.0 °F 72% 30.19 in 10.0 mi Calm Calm - N/A   Clear
9:55 PM 57.2 °F 50.0 °F 77% 30.19 in 10.0 mi Calm Calm - N/A   Clear
10:15 PM 55.4 °F 50.0 °F 82% 30.19 in 10.0 mi Calm Calm - N/A   Clear
10:35 PM 55.4 °F 50.0 °F 82% 30.19 in 10.0 mi Calm Calm - N/A   Clear
10:55 PM 53.6 °F 48.2 °F 82% 30.20 in 10.0 mi Calm Calm - N/A   Clear
11:15 PM 51.8 °F 48.2 °F 88% 30.20 in 10.0 mi Calm Calm - N/A   Clear
11:35 PM 51.8 °F 46.4 °F 82% 30.20 in 10.0 mi Calm Calm - N/A   Clear
11:55 PM 50.0 °F 46.4 °F 87% 30.20 in 10.0 mi Calm Calm - N/A   Clear